User: anonymous   Login
Location: Home
(42.5358°N, 72.7383°W)
Time: 14:24:57
(UTC-05:00)
Language:

NUDT-PHONESAT - Orbit

View from above orbital plane
View from above orbital plane
View from above satellite
View from above satellite

Ground track
Ground track

The orbit data is extracted from the following two-line orbital elements,

1 40900U 15049B   22019.55299637  .00014287  00000-0  50470-3 0  9993
2 40900  97.4119  37.4917 0012999  94.5600  25.4994 15.29234046351818
Epoch (UTC): 19 January 2022 13:16:18
Eccentricity: 0.0012999
inclination: 97.4119°
perigee height: 469 km
apogee height: 487 km
right ascension of ascending node: 37.4917°
argument of perigee: 94.5600°
revolutions per day: 15.29234046
mean anomaly at epoch: 25.4994°
orbit number at epoch: 35181

The dashed part of the orbit path shows where the satellite is in the earth's shadow,  

DLR